Observations for Trim Market St
| Time | AQI | Temp °C | Hum % | Pres Pa | CO μg/m³ | H₂S μg/m³ | NO μg/m³ | NO₂ μg/m³ | O₃ μg/m³ | SO₂ μg/m³ | PM1 μg/m³ | PM2.5 μg/m³ | PM10 μg/m³ |
|---|---|---|---|---|---|---|---|---|---|---|---|---|---|
| Tuesday 25 August 2026 | |||||||||||||
| 03:24 | 2 | 16 | 73 | 50,837 | 0.26 | 0 | 1.36 | 9.67 | 45.15 | 0 | 1.43 | 2.9 | 5.1 |
| 03:23 | 2 | 16 | 73 | 50,798 | 0.27 | 0 | 1.33 | 8.72 | 48.46 | 0 | 1.43 | 2.42 | 5.71 |
| 03:22 | 2 | 16 | 73 | 50,751 | 0.27 | 0 | 1.37 | 10.01 | 44.28 | 0 | 1.43 | 2.9 | 5.71 |
| 03:20 | 2 | 16 | 73 | 50,621 | 0.27 | 0 | 1.34 | 9.42 | 45.74 | 0 | 1.43 | 5.31 | 8.14 |
| 03:19 | 2 | 16 | 73 | 50,545 | 0.26 | 0 | 1.37 | 8.57 | 50.46 | 0 | 2.14 | 3.38 | 5.71 |
| 03:17 | 2 | 16 | 73 | 50,440 | 0.27 | 0 | 1.65 | 9.24 | 45.5 | 0 | 1.43 | 2.9 | 5.1 |
| 03:16 | 2 | 16 | 73 | 50,373 | 0.26 | 0 | 1.62 | 8.44 | 48.98 | 0 | 1.43 | 2.9 | 5.71 |
| 03:15 | 2 | 16 | 73 | 50,298 | 0.26 | 0 | 1.58 | 9.47 | 47.26 | 0 | 0.71 | 2.9 | 5.1 |
| 03:14 | 2 | 16 | 73 | 50,272 | 0.27 | 0 | 1.64 | 9.15 | 46.44 | 0 | 0 | 1.45 | 4.49 |
| 03:10 | 2 | 16.1 | 73 | 50,157 | 0.26 | 0 | 1.53 | 9.89 | 45.96 | 0 | 1.43 | 3.38 | 5.71 |
| 03:02 | 2 | 16.1 | 74 | 49,629 | 0.27 | 0 | 1.37 | 9.32 | 44.87 | 0 | 0 | 2.41 | 4.5 |
| 03:01 | 2 | 16.1 | 74 | 49,567 | 0.28 | 0 | 1.3 | 9.62 | 44.05 | 0 | 1.43 | 2.89 | 6.32 |
| 03:00 | 2 | 16.1 | 74 | 49,542 | 0.27 | 0 | 1.34 | 11.69 | 47.1 | 0 | 0 | 1.93 | 4.5 |
| 02:59 | 2 | 16.1 | 74 | 49,525 | 0.27 | 0 | 1.31 | 9.41 | 44.61 | 0 | 1.43 | 2.89 | 5.11 |
| 02:58 | 2 | 16.1 | 74 | 49,521 | 0.28 | 0 | 1.32 | 9.41 | 45.86 | 0 | 1.43 | 3.37 | 6.32 |
| 02:57 | 2 | 16.1 | 74 | 49,505 | 0.28 | 0 | 1.3 | 10.15 | 43.04 | 0 | 1.43 | 3.37 | 5.71 |
| 02:56 | 2 | 16.1 | 74 | 49,522 | 0.28 | 0 | 1.26 | 12.02 | 43.66 | 0 | 0.71 | 2.41 | 4.5 |
| 02:55 | 2 | 16.1 | 74 | 49,480 | 0.28 | 0 | 1.18 | 9.28 | 46.6 | 0 | 0.71 | 2.88 | 5.71 |
| 02:54 | 2 | 16.2 | 74 | 49,409 | 0.28 | 0 | 1.14 | 11.47 | 43.96 | 0 | 0.71 | 2.4 | 4.5 |
| 02:53 | 2 | 16.2 | 74 | 49,382 | 0.28 | 0 | 1.27 | 13.41 | 44.54 | 0 | 1.43 | 3.85 | 7.53 |